Wind_Speed
12 12 12 12 13 13 13 14 15 15 16 16 17 18 19 20 21 23 24 25 24 22 19 16 12 9 7 7 8 9 9 9 6 7 9 12 13 11 11 11 10 10 9 8 7 5 3 3 4 6 7 7 6 6 6 7 8 4 2 4 2 1 1 2 5 5 5 3 1 2 4 7 9 12 16 13 15 22 22 21 21 19 18 18 16 13 9 6
11 12 12 13 13 13 13 14 14 15 16 16 16 17 18 19 20 22 23 23 23 22 19 15 11 9 6 6 7 7 8 8 7 9 11 12 11 11 12 12 11 11 10 8 8 6 4 5 5 6 8 8 5 5 5 5 7 4 3 3 1 3 2 2 6 6 5 6 4 3 5 5 7 11 12 6 9 18 18 16 19 21 19 16 14 10 7 4
11 12 12 13 13 14 13 14 14 14 15 15 16 15 16 18 19 20 21 22 22 21 18 14 10 8 6 4 5 6 6 7 7 9 10 10 11 12 12 12 12 12 11 10 10 8 5 6 7 7 8 7 5 4 3 4 4 2 3 2 4 5 2 2 7 8 7 9 8 5 5 2 5 9 11 11 9 8 11 13 14 18 18 15 12 9 6 4
12 12 12 13 13 14 14 14 14 14 15 15 15 15 15 17 18 19 19 20 20 20 18 13 8 7 5 3 5 3 3 4 4 6 8 8 10 10 11 12 11 10 11 10 10 9 7 7 8 7 6 5 5 2 2 3 2 1 2 2 5 4 2 3 8 9 7 9 9 8 5 4 6 7 16 21 11 0 10 17 14 17 20 16 13 10 7 7
12 12 13 13 13 14 14 14 14 14 15 15 15 15 15 15 17 17 18 19 19 18 17 12 7 6 5 4 4 2 1 1 1 4 6 6 8 9 10 10 9 8 9 9 9 9 8 8 8 7 5 3 4 2 1 2 2 2 2 5 5 4 3 4 8 8 7 9 9 8 5 5 5 7 17 19 7 6 15 16 14 17 19 16 14 12 10 8
12 13 13 13 13 14 13 14 14 14 14 14 15 15 15 15 16 17 17 17 17 17 16 12 6 4 4 4 5 2 1 1 3 5 5 5 6 7 8 8 7 7 7 8 8 8 7 8 8 7 5 3 3 1 0 2 1 1 3 4 3 3 4 5 7 6 7 8 7 6 4 6 7 6 8 10 6 13 18 16 16 17 17 15 14 12 10 8
12 12 13 13 13 13 14 13 13 13 14 14 14 14 14 14 15 17 16 16 15 15 15 11 5 2 3 4 6 4 3 3 5 5 4 4 5 6 6 6 6 5 5 7 7 8 8 9 10 8 4 3 3 1 1 3 2 2 3 4 2 2 2 3 4 6 6 7 6 4 5 7 9 6 5 9 12 19 20 18 18 17 17 15 13 12 9 8
12 12 13 13 13 13 13 13 13 13 13 13 14 14 14 14 16 17 16 16 14 14 14 10 5 0 3 4 5 4 4 4 5 5 4 3 4 5 4 4 5 4 6 8 8 8 8 8 10 8 3 1 2 3 3 4 3 3 4 4 2 3 1 1 2 5 6 8 6 4 7 10 12 10 8 14 19 21 22 20 19 18 17 15 13 12 9 8
12 13 13 13 13 13 13 14 14 14 14 13 14 14 15 15 15 17 17 16 13 13 13 10 5 3 4 5 4 4 4 4 5 6 4 3 3 3 3 3 3 5 6 8 8 7 7 7 7 6 2 1 3 4 4 3 2 2 4 4 3 5 6 7 4 4 6 9 7 3 2 7 13 10 7 16 22 22 22 20 19 18 17 14 12 11 9 8
13 13 13 14 13 14 14 14 14 14 14 14 14 14 15 15 15 16 16 16 13 12 13 9 4 4 5 6 5 3 4 6 6 6 5 3 2 2 3 2 3 5 6 6 6 5 7 7 6 6 3 1 3 4 3 1 2 4 4 6 7 10 11 9 7 5 8 9 8 5 2 8 15 7 3 17 24 23 23 21 19 17 15 14 12 10 8 6
14 13 14 14 14 15 14 15 15 15 15 15 15 14 15 15 15 15 16 16 12 11 13 8 4 4 4 6 6 4 4 7 7 7 6 4 2 2 2 1 1 5 6 5 4 4 6 8 6 5 2 1 4 5 3 2 4 6 6 8 10 11 12 9 7 8 8 6 6 7 2 5 10 3 7 22 27 24 24 21 19 16 14 14 11 10 8 5
14 14 14 14 15 15 15 16 16 16 16 16 15 14 15 15 15 15 15 17 12 10 13 8 4 4 4 4 6 5 5 7 7 8 7 4 2 1 2 1 1 4 6 5 4 2 4 6 7 5 2 3 4 3 2 4 6 7 4 5 8 9 9 7 5 9 9 5 8 9 3 1 7 7 8 23 29 25 23 21 19 17 15 14 12 10 8 6
15 15 15 15 16 16 16 17 17 18 17 17 17 15 16 15 15 15 14 17 12 10 14 8 4 6 4 4 5 5 6 7 8 8 7 4 2 0 1 1 2 4 5 5 4 2 2 5 7 6 4 3 2 1 4 7 5 5 2 1 4 7 6 4 2 7 8 6 10 9 1 5 10 11 9 24 31 27 24 23 21 19 17 16 14 12 9 8
16 16 16 16 16 17 17 17 18 19 17 19 18 16 17 15 16 15 13 16 10 9 15 8 4 7 6 4 5 6 7 8 8 8 6 4 3 1 0 0 1 4 5 5 4 2 3 6 7 6 4 2 3 4 6 5 1 1 1 2 2 3 5 6 2 8 5 4 11 8 4 7 8 12 15 26 32 28 26 24 23 22 19 18 16 14 11 10
16 16 17 17 17 17 18 18 19 19 19 20 18 19 18 16 17 13 12 14 8 10 16 8 5 7 6 4 6 7 9 9 9 8 6 5 4 3 2 1 2 4 5 5 3 2 4 7 5 4 3 3 3 3 4 4 3 2 2 3 3 1 5 9 3 9 6 4 9 7 4 6 6 11 20 28 30 28 26 25 25 24 22 20 18 16 13 12
17 17 17 17 17 18 18 19 19 20 20 20 20 20 18 18 18 11 11 12 8 12 15 7 6 6 5 4 6 8 11 11 9 8 7 6 5 4 3 3 2 3 4 4 3 2 4 6 3 3 3 2 2 3 4 4 4 3 1 3 4 3 3 7 4 6 7 3 5 6 5 5 5 10 22 28 29 28 25 25 26 26 25 23 20 18 15 13
18 18 18 17 17 18 19 19 19 20 20 21 22 20 19 19 14 10 13 10 9 15 11 6 6 7 7 6 7 9 12 12 9 8 7 6 6 4 4 3 2 2 2 3 2 1 4 3 1 1 2 3 3 4 4 3 4 4 2 2 4 4 3 4 6 5 4 4 5 5 6 8 5 10 23 28 29 28 26 27 29 28 26 24 21 20 17 15
20 19 19 18 18 18 19 19 19 20 21 22 22 22 21 15 11 13 11 8 9 12 6 6 4 4 6 8 8 7 8 10 9 8 7 6 6 4 5 4 1 1 1 2 3 1 4 1 2 1 3 4 3 5 1 3 3 4 4 3 4 4 4 5 5 4 2 3 6 4 6 11 7 8 21 28 30 29 27 28 30 29 27 25 23 21 18 16
21 21 20 20 19 18 19 19 19 20 21 22 21 23 19 13 13 9 5 5 10 7 3 6 6 4 7 8 9 8 7 8 9 9 8 7 5 5 5 3 2 3 0 1 1 2 2 2 3 2 3 2 2 4 6 7 7 6 5 4 4 5 7 7 6 6 3 4 8 8 9 12 9 7 16 25 29 28 26 26 27 28 27 26 25 22 19 17
22 21 21 20 20 19 19 19 18 19 21 22 22 21 14 11 11 1 4 9 9 7 8 11 13 14 14 13 11 11 10 10 10 9 9 8 6 6 5 3 3 2 1 0 2 3 3 2 2 4 6 6 7 6 6 5 6 4 2 4 6 5 8 8 6 6 3 3 8 9 9 12 10 8 13 24 26 22 21 22 25 27 28 29 27 23 21 18
22 22 22 21 21 20 19 19 18 17 19 20 21 17 10 9 6 3 10 12 7 10 17 18 19 19 17 16 13 9 8 10 12 11 10 8 6 6 5 2 3 1 2 0 1 1 4 1 5 8 9 8 6 5 4 2 3 3 2 4 6 5 8 9 6 5 1 3 7 6 6 10 11 9 12 19 19 18 24 26 27 30 30 31 28 24 22 19
23 22 22 21 21 20 19 18 17 16 16 17 17 13 9 10 7 8 11 9 13 16 17 17 17 19 17 15 13 10 8 7 10 13 12 8 7 6 5 3 3 1 2 2 1 3 3 4 10 9 6 5 2 1 2 2 2 2 2 1 5 4 5 8 6 3 0 1 6 6 6 8 10 10 11 17 19 24 34 36 34 35 34 32 30 25 24 21
24 23 22 22 21 20 18 17 17 15 14 14 13 10 9 10 9 11 10 8 14 14 13 13 13 14 13 10 9 10 11 7 8 13 12 9 8 6 6 5 3 1 1 2 2 1 3 6 8 4 6 6 1 1 3 1 2 3 3 1 5 4 2 5 5 4 3 3 5 8 8 7 8 12 12 17 25 26 32 34 32 34 35 34 31 27 26 24
25 23 23 23 21 19 17 17 16 14 13 11 10 8 8 9 9 12 11 6 8 8 9 9 9 10 9 6 5 7 10 8 7 10 13 10 8 7 5 5 4 2 3 4 6 4 6 7 2 5 6 5 2 0 4 3 4 4 5 5 7 7 6 7 4 5 5 4 5 8 10 6 7 14 12 7 15 18 21 25 25 29 32 31 29 27 26 23
26 25 24 23 21 19 17 16 15 13 11 8 8 6 7 9 9 11 8 3 5 6 4 6 6 6 7 5 5 7 6 7 8 10 12 10 9 6 3 4 3 2 5 4 5 3 8 6 2 5 3 3 5 3 4 7 3 4 5 9 10 10 9 8 5 5 5 5 4 4 5 6 3 9 10 1 5 10 13 17 22 27 28 29 30 28 25 21
28 27 25 23 22 19 16 14 12 11 9 7 7 6 7 8 8 9 5 3 3 4 3 4 4 4 8 7 6 6 2 5 9 12 11 9 10 7 2 3 2 1 4 4 1 2 3 2 3 5 4 4 4 5 5 7 4 3 5 6 7 7 6 7 4 3 2 4 4 3 1 8 2 4 8 4 6 10 9 11 18 24 27 30 32 28 25 22
29 27 25 23 22 19 15 12 11 10 9 8 6 5 7 6 6 7 5 4 4 4 4 4 5 5 7 8 10 8 1 2 7 11 13 9 8 7 4 3 1 2 4 3 2 3 3 1 4 4 4 4 4 5 6 7 6 3 4 3 3 3 5 4 1 2 4 2 6 2 4 7 7 6 7 7 9 10 9 10 13 20 27 31 31 28 26 22
28 26 24 23 21 19 15 13 13 11 10 9 7 6 5 5 5 4 4 2 3 3 4 4 6 6 7 8 12 10 2 2 4 8 13 11 8 5 3 5 5 5 4 5 3 6 3 3 4 5 3 3 6 6 7 9 4 5 4 3 2 2 4 2 1 5 3 3 8 6 6 4 10 5 1 3 8 10 12 14 13 19 28 30 30 29 26 21
27 25 23 22 21 19 16 15 14 12 10 8 6 6 4 3 2 4 4 2 2 2 2 4 5 6 7 6 10 10 5 2 2 7 12 9 7 5 2 5 6 4 3 4 5 6 2 3 6 7 4 5 6 4 6 8 3 3 3 2 2 1 2 1 2 4 2 1 11 8 8 4 8 3 2 1 5 10 13 13 12 19 27 28 30 30 25 21
26 24 23 22 20 18 16 15 14 12 10 8 7 6 3 1 2 4 1 4 2 1 3 4 4 5 7 5 3 6 5 4 3 8 9 5 5 4 3 4 3 3 1 2 2 5 2 1 2 3 5 5 4 2 2 4 3 3 4 4 5 4 2 2 1 2 3 3 11 8 11 9 7 3 6 4 6 9 10 8 10 17 24 28 31 31 26 22
24 23 22 21 20 19 16 14 14 12 11 9 8 6 3 1 4 3 5 3 1 1 2 2 3 4 7 5 2 3 3 3 5 9 5 2 3 2 2 2 0 2 3 4 3 5 4 1 2 3 4 4 6 4 2 3 3 4 4 4 4 5 4 4 4 3 1 6 6 4 9 10 8 5 5 8 7 6 8 10 13 18 23 29 33 31 27 23
22 22 22 22 21 19 16 15 13 12 12 11 9 7 4 1 0 4 4 2 2 3 3 3 3 3 5 3 1 4 3 2 5 7 5 3 3 3 3 4 2 2 4 2 2 5 3 4 3 2 2 5 6 3 2 4 5 4 3 3 3 5 4 3 3 0 3 7 4 1 3 6 10 9 7 11 11 8 7 12 18 22 25 30 33 31 27 23
20 21 21 22 21 19 18 16 14 14 13 12 11 6 5 2 5 6 5 2 2 3 2 2 1 3 6 3 3 4 2 3 5 5 4 3 2 4 4 5 6 3 4 3 1 4 3 5 2 1 2 6 8 4 2 2 1 4 3 2 2 1 3 5 4 3 5 7 2 3 2 4 8 7 7 10 11 10 11 17 22 27 31 34 34 31 26 21
19 20 21 22 21 20 19 17 16 16 14 14 11 5 4 5 6 5 6 6 3 1 1 2 3 3 4 3 4 4 3 3 4 5 3 2 1 3 4 5 5 5 2 2 0 2 3 5 3 5 2 7 9 5 5 5 3 4 4 4 4 3 3 5 4 5 8 8 4 1 1 4 4 3 4 7 8 6 11 17 18 24 31 34 32 28 24 21
17 18 21 22 22 22 20 18 18 16 16 15 10 4 6 8 4 3 5 5 2 1 1 2 5 4 3 3 3 3 5 4 2 4 3 3 4 4 4 5 6 5 5 3 2 3 4 6 6 2 1 7 7 3 6 6 2 2 3 4 2 4 5 4 5 5 4 7 6 3 4 6 4 2 2 2 3 1 6 12 18 23 29 31 29 27 24 20
17 19 22 23 24 23 21 20 17 16 18 14 7 6 9 7 4 5 4 4 4 4 3 2 3 4 4 3 3 3 3 2 1 2 3 3 3 5 5 5 7 9 7 5 3 2 2 5 4 1 1 3 4 3 3 3 2 1 2 3 4 4 5 2 6 3 2 4 7 3 6 7 1 2 2 4 3 2 4 9 17 23 27 28 28 27 24 20
21 23 24 25 25 23 23 21 17 16 17 12 7 9 7 5 7 6 3 4 4 5 7 2 2 5 5 3 4 5 2 1 1 2 3 3 3 6 5 5 7 13 13 8 3 4 3 4 4 3 2 2 1 2 2 1 3 5 3 5 3 1 2 1 2 3 0 5 6 3 9 12 5 3 3 3 2 4 4 6 11 16 22 24 25 27 23 19
21 23 25 28 27 24 22 21 17 16 13 8 9 10 5 5 9 9 6 5 3 4 6 5 5 5 6 4 4 4 4 3 3 3 3 3 4 5 6 4 7 11 14 10 2 2 2 3 5 2 2 1 2 2 1 2 1 4 3 3 2 1 2 1 2 3 3 5 7 6 10 13 9 5 3 5 9 10 8 7 8 12 18 21 25 26 23 18
16 16 19 24 25 24 22 21 20 16 10 7 10 9 4 5 11 16 15 7 3 3 4 5 6 3 5 6 4 3 5 6 5 4 3 3 4 6 7 5 5 5 8 10 5 2 3 1 4 1 1 1 2 1 4 2 1 2 1 3 0 2 3 3 2 2 3 6 9 8 10 11 6 6 8 12 14 13 11 11 11 14 19 23 27 27 23 19
17 11 12 16 18 23 23 22 20 15 8 8 9 6 3 4 10 21 24 14 5 5 5 4 5 5 4 5 4 3 4 5 6 4 4 4 4 5 6 6 4 3 2 5 3 1 3 2 3 2 3 1 3 4 7 8 5 3 2 2 3 2 1 2 2 3 3 6 7 6 11 13 4 5 8 11 14 15 15 15 13 15 21 25 28 28 24 21
19 9 10 11 13 21 26 20 14 11 6 7 8 5 5 6 7 14 25 25 15 9 7 5 6 6 5 4 4 4 4 4 6 5 4 5 6 4 8 12 10 7 4 4 1 3 3 3 4 2 1 4 5 5 5 8 8 6 6 7 7 6 2 3 5 3 3 6 6 3 12 14 3 4 6 8 10 11 14 16 13 15 24 28 30 29 24 20
20 9 7 11 15 24 26 15 9 8 6 8 9 8 8 8 7 9 18 24 18 11 7 5 6 7 6 6 6 6 5 4 6 6 5 7 9 6 9 17 18 16 9 3 2 4 3 2 3 4 5 5 5 4 1 2 2 3 5 6 6 6 6 6 8 4 2 6 5 0 10 13 2 4 4 5 7 11 19 21 15 17 27 31 30 27 23 19
24 13 8 11 19 28 22 8 6 6 5 9 11 12 12 8 5 8 12 14 12 8 7 6 5 8 7 6 7 6 6 6 7 8 6 6 8 8 10 18 19 13 7 2 1 2 3 2 3 5 4 1 2 4 4 4 3 1 5 5 6 9 9 8 6 1 1 7 3 2 12 13 1 2 2 2 3 10 20 24 20 20 26 30 29 26 22 19
24 18 15 14 20 28 20 6 6 8 7 8 10 14 16 13 10 10 9 11 11 7 6 7 6 9 9 5 7 7 7 7 7 8 8 5 5 8 11 18 19 11 6 5 6 8 5 2 3 2 5 5 3 3 4 4 1 4 6 6 9 12 8 2 1 1 5 8 6 5 15 13 1 3 3 3 4 7 12 19 23 23 26 29 28 25 22 19
17 13 17 21 28 31 22 10 5 6 9 11 10 12 13 13 17 21 16 14 15 9 5 8 9 10 8 4 6 8 8 10 8 5 7 5 3 4 7 14 17 12 7 6 10 13 8 3 5 5 5 7 7 5 3 3 3 3 4 7 11 13 12 6 2 4 10 9 8 11 17 14 7 1 3 1 5 6 7 13 20 24 27 30 29 26 23 19
15 8 9 18 30 35 31 23 12 4 6 9 7 9 15 14 15 22 21 16 16 14 9 9 8 8 6 7 8 10 10 11 9 5 4 5 4 3 4 10 13 12 8 6 11 12 4 2 7 10 11 12 14 12 4 5 4 5 8 11 12 12 14 9 4 9 12 6 9 19 17 18 21 9 3 5 6 7 8 10 15 22 27 31 30 27 23 20
15 9 9 12 17 24 27 25 18 7 6 11 6 7 17 18 11 13 18 17 17 18 12 8 7 8 9 11 10 10 12 11 11 9 6 5 3 2 2 5 8 11 9 7 11 9 3 4 11 13 16 18 19 17 7 4 9 14 14 13 11 11 13 13 13 17 12 4 14 24 16 17 27 17 7 10 10 8 8 11 18 25 28 31 29 26 23 20
17 13 21 22 12 8 15 22 21 14 12 15 10 6 11 16 15 13 14 13 15 18 13 8 14 18 15 13 10 10 13 11 10 11 8 6 5 2 1 2 4 9 8 6 7 6 3 8 12 11 16 20 20 17 8 6 9 13 19 17 9 12 16 18 21 22 15 11 20 27 20 21 27 17 7 10 12 12 14 19 25 27 29 30 28 27 25 21
23 13 20 29 19 10 18 28 27 20 19 17 10 11 16 19 19 14 10 7 9 17 18 13 18 22 18 15 12 12 14 12 11 13 11 11 12 6 3 3 4 7 6 5 4 4 4 8 10 9 13 18 18 13 9 10 11 14 24 21 9 13 19 19 20 23 21 21 25 27 26 29 28 17 9 11 14 18 20 23 25 25 28 30 29 29 27 21
33 21 17 22 19 16 19 22 19 16 19 18 13 16 20 19 18 13 10 12 11 13 18 21 23 19 17 18 17 19 23 18 15 16 13 12 12 7 5 5 4 4 4 4 2 3 5 5 4 4 8 15 15 10 7 9 11 17 26 22 13 15 17 17 20 23 20 22 27 27 24 27 26 16 11 13 14 15 15 19 23 26 31 32 30 31 27 22
47 33 23 18 11 13 14 12 12 11 12 14 16 19 17 18 22 16 11 20 24 16 16 24 26 16 14 19 23 26 29 23 19 23 22 17 14 11 9 8 9 7 5 6 4 3 5 3 1 4 5 12 7 1 2 2 5 16 27 25 19 18 18 18 20 21 20 21 23 20 17 21 20 10 7 10 12 12 12 17 23 27 32 34 33 32 28 23
48 33 30 23 12 13 14 9 10 12 11 14 19 20 17 19 22 16 10 19 30 27 22 24 23 14 11 20 30 37 39 33 28 29 25 19 16 13 11 11 14 13 8 7 5 4 6 5 2 4 6 9 1 5 4 3 4 14 20 19 19 21 21 20 18 22 23 18 14 14 16 19 14 4 5 8 10 10 11 19 25 27 32 35 34 32 27 22
Wind_Direction
357 0 3 6 7 8 7 7 9 11 12 16 18 17 14 12 12 12 12 16 23 24 25 28 38 53 76 91 78 70 65 61 66 82 80 67 60 53 48 43 36 33 26 17 3 356 358 8 10 10 6 5 6 347 354 9 13 29 112 70 41 169 118 172 169 171 151 156 247 203 174 145 119 113 113 100 97 97 93 96 104 110 112 116 124 132 137 146
353 356 358 2 5 6 6 4 5 7 8 9 13 13 11 8 8 9 8 11 19 23 23 27 36 49 74 106 96 82 76 75 84 81 72 65 60 55 49 46 39 33 28 20 11 14 32 31 25 19 17 23 12 348 355 6 27 57 106 62 250 202 173 183 155 154 143 148 179 186 173 152 130 137 140 120 101 105 99 99 112 114 115 125 132 141 158 185
347 350 353 357 1 4 5 3 3 3 4 4 7 10 8 5 3 4 4 6 13 19 21 24 34 47 64 114 122 104 93 81 79 74 69 67 62 55 48 42 35 30 24 17 16 17 22 18 12 10 19 31 14 338 349 358 18 63 81 47 244 208 160 163 138 131 142 155 153 158 177 116 97 149 150 136 130 118 124 137 132 127 133 138 144 159 174 172
343 346 348 351 354 359 3 4 3 2 2 2 3 6 5 2 360 360 0 0 5 13 18 21 32 49 55 108 132 132 123 75 66 77 73 71 65 56 47 37 27 27 23 15 12 11 7 4 3 11 27 28 9 339 333 1 357 7 116 178 228 191 136 150 132 121 132 147 145 151 157 93 86 142 151 138 120 179 173 165 161 153 151 149 151 157 159 149
340 342 344 347 349 353 358 2 4 4 4 3 3 5 5 2 358 356 355 355 359 6 13 17 28 55 61 111 133 131 136 31 70 107 90 78 72 59 44 29 22 24 24 18 12 10 3 357 2 19 30 18 16 21 333 15 34 341 239 227 219 160 127 144 130 118 134 134 130 138 133 144 130 117 150 153 141 197 184 174 170 162 158 157 155 152 150 144
335 339 342 344 346 348 352 356 359 2 3 4 5 6 5 2 358 353 350 349 353 359 6 11 23 65 77 113 126 96 102 161 168 134 111 92 75 59 40 19 20 25 22 20 17 22 17 5 8 14 19 26 24 35 1 4 28 307 281 268 232 160 125 146 137 122 146 140 124 136 144 160 143 102 152 175 169 168 168 165 162 158 158 158 154 153 149 138
329 334 337 340 343 345 346 349 352 354 357 1 1 2 3 2 358 351 345 344 348 354 0 2 9 76 105 118 126 111 106 141 155 141 129 107 73 57 40 13 17 22 17 24 27 33 29 14 16 20 25 42 24 357 9 320 289 178 262 285 256 217 135 150 144 129 141 134 115 132 171 176 156 138 144 146 147 155 158 160 160 158 158 159 156 152 147 133
322 327 331 335 339 340 342 344 345 346 348 352 354 354 356 358 356 348 341 340 343 351 356 354 348 251 173 151 148 145 130 139 156 149 144 117 71 50 36 17 15 15 18 25 29 33 30 19 16 19 25 61 4 340 357 327 297 174 238 282 285 267 272 340 144 143 138 131 126 138 182 200 183 165 142 140 149 155 157 159 160 159 158 161 159 151 145 133
318 323 327 330 333 337 338 339 340 340 342 343 346 345 347 350 351 347 339 335 340 348 352 348 327 266 215 199 186 186 177 167 167 164 159 130 76 45 36 30 23 21 20 19 23 29 27 24 16 7 351 329 342 336 16 14 307 218 239 292 312 292 299 301 275 195 170 162 165 158 178 196 175 156 138 153 158 160 162 163 163 163 162 161 160 156 153 141
314 318 323 326 329 333 333 335 336 337 338 338 340 340 340 343 346 347 339 333 338 345 348 346 318 272 226 214 203 204 201 181 174 174 170 150 91 59 51 42 32 26 16 7 16 27 25 25 14 354 340 330 338 321 338 0 286 300 299 307 297 291 298 288 264 215 179 177 180 173 184 176 166 159 191 172 166 166 165 163 166 169 169 166 165 167 166 154
309 313 318 322 325 328 329 331 331 333 335 335 338 337 336 338 341 344 337 330 332 342 347 343 306 269 224 214 210 211 195 179 177 177 175 160 116 70 55 46 24 19 10 2 3 17 24 18 4 351 349 328 323 310 299 285 295 307 322 317 299 304 303 272 230 204 176 178 179 153 130 168 170 218 229 183 172 173 172 165 171 179 176 173 174 177 172 164
303 309 314 318 321 324 325 326 327 329 331 331 334 335 334 333 336 338 331 325 322 332 345 342 290 255 219 218 224 222 190 176 178 179 177 169 149 63 55 47 354 2 357 353 344 350 16 3 355 352 315 278 310 335 325 320 311 297 328 318 302 337 320 266 206 190 180 181 168 133 72 252 203 247 225 183 175 177 180 174 178 183 179 175 176 179 175 171
298 305 310 314 318 319 321 323 323 326 327 329 331 333 333 331 334 334 325 321 313 321 339 336 271 249 239 243 235 217 191 181 183 183 181 181 192 332 55 31 0 357 339 332 326 310 341 345 343 335 315 290 283 322 304 311 309 283 325 350 309 358 326 285 107 168 174 181 174 149 272 255 221 235 205 177 178 179 181 181 183 183 179 177 178 183 180 169
294 300 305 309 313 315 318 319 320 323 325 327 328 331 332 330 331 328 319 317 307 319 333 323 252 245 248 254 238 215 199 192 191 192 192 202 224 231 341 306 334 345 330 320 319 288 318 336 335 337 337 306 278 296 313 331 6 259 339 52 0 357 280 304 44 155 164 195 180 162 254 252 237 235 196 179 182 180 179 181 184 184 181 182 183 185 183 168
289 295 301 304 309 311 314 316 317 320 322 324 325 329 331 330 330 324 314 310 293 325 329 304 248 247 248 247 235 222 210 204 202 205 210 226 235 219 265 267 263 327 327 315 309 274 329 332 331 352 344 316 323 335 341 348 3 24 7 326 328 180 260 308 318 170 182 212 176 160 251 260 254 229 193 182 185 184 183 184 185 186 185 185 185 184 185 174
287 291 295 299 305 307 310 313 315 318 320 323 324 327 332 330 327 319 314 300 277 323 325 280 244 242 247 254 237 228 217 212 212 221 228 236 227 220 265 260 250 311 323 318 299 252 330 337 347 11 0 346 53 71 35 3 341 2 46 275 274 228 277 317 313 208 196 196 189 189 233 267 268 213 191 184 187 188 187 186 187 190 188 186 186 186 187 180
287 290 293 297 301 303 307 311 314 316 318 321 323 328 333 329 324 317 309 281 273 319 314 246 248 259 262 253 235 234 225 219 219 226 233 229 217 227 252 237 239 288 321 316 256 268 334 350 42 0 30 42 76 83 35 349 316 328 0 287 257 247 267 292 307 289 182 180 231 213 224 250 254 195 189 190 191 191 191 191 191 191 190 188 189 192 192 185
285 288 291 294 298 301 305 308 312 315 316 321 324 329 332 329 325 315 294 253 284 317 294 224 239 284 266 230 216 228 221 218 221 225 227 218 212 225 226 217 208 175 0 316 221 298 333 13 89 29 17 15 36 83 116 239 232 264 283 291 287 275 256 248 275 292 157 206 243 218 240 253 254 199 195 196 195 196 198 196 195 193 191 191 194 197 194 188
281 285 288 292 296 299 301 305 311 313 315 319 323 330 334 331 331 315 224 251 298 296 246 223 218 249 266 247 234 233 227 223 226 228 222 211 209 213 206 189 151 156 58 330 249 331 0 50 50 8 333 288 220 135 176 208 195 219 243 238 262 275 270 257 250 257 213 233 251 230 241 253 245 212 202 201 199 202 205 200 198 196 194 195 199 200 195 191
275 280 284 289 293 295 299 302 307 311 314 319 327 338 345 343 346 321 234 306 295 250 263 265 255 257 261 266 261 250 250 243 231 224 211 204 202 198 192 178 137 120 25 312 277 328 68 35 316 246 246 227 213 191 188 196 181 193 213 229 245 244 269 274 265 273 208 198 257 235 233 253 246 226 209 201 199 204 205 202 201 198 196 198 200 200 196 195
269 273 278 284 288 291 294 297 302 308 312 319 330 344 357 357 358 307 309 316 293 276 279 275 269 264 259 264 265 255 249 236 224 214 202 199 193 188 195 174 92 44 317 179 234 0 76 4 259 233 227 207 200 198 189 188 179 194 209 251 274 238 255 274 270 282 171 175 268 252 235 255 251 243 218 196 194 205 204 202 204 200 199 201 200 199 195 194
265 268 273 278 281 286 289 292 297 302 309 316 327 340 351 352 344 325 324 304 294 295 282 272 266 261 262 264 260 244 229 229 223 210 199 196 196 199 199 154 95 254 306 44 46 1 21 267 258 246 208 163 134 152 175 212 198 200 182 250 289 257 267 290 293 304 73 197 274 275 256 255 256 256 231 197 196 209 208 207 207 201 198 199 199 196 192 191
262 264 268 271 274 280 283 288 291 296 304 308 319 333 341 340 335 334 333 292 293 296 278 272 261 256 260 258 254 229 216 221 220 207 197 198 207 201 183 149 125 192 351 75 145 340 320 250 253 227 153 143 8 29 137 219 262 215 188 213 271 275 288 286 307 335 310 261 259 275 268 251 253 258 248 209 204 213 214 214 213 205 201 200 198 197 195 194
260 261 264 266 270 275 278 283 286 291 296 299 311 322 330 331 332 338 335 294 285 290 272 257 243 247 243 234 232 206 206 217 218 202 192 196 200 190 183 155 119 160 214 165 147 183 253 254 213 115 125 153 196 211 146 182 278 260 214 210 248 269 251 244 291 340 316 299 273 289 286 255 220 239 254 215 202 215 213 211 212 208 204 201 200 200 200 201
257 257 259 263 267 271 274 279 282 283 285 288 297 307 324 325 333 345 342 324 292 285 250 225 234 237 212 203 203 186 200 224 217 197 189 197 192 171 171 167 137 204 220 167 129 212 260 271 145 130 119 143 177 226 190 181 236 298 243 217 232 254 258 264 323 359 337 315 304 343 306 275 211 230 253 136 186 216 202 201 206 204 200 199 200 199 199 202
254 254 257 260 263 266 270 275 275 271 271 275 283 301 318 320 342 350 356 40 308 264 188 195 214 200 193 198 186 168 200 243 212 196 190 195 194 175 152 173 148 228 201 158 120 246 257 338 87 136 154 149 179 249 227 172 150 290 258 209 215 237 255 274 323 354 276 267 293 65 265 274 273 222 239 189 198 219 199 203 206 199 197 198 200 197 196 200
250 251 254 257 261 262 262 263 260 257 260 267 276 293 306 319 351 353 14 30 285 222 147 174 185 179 191 192 178 164 169 229 187 193 193 186 189 183 190 200 136 216 187 121 339 272 168 76 42 99 136 163 196 254 226 158 136 242 254 127 137 210 245 267 317 266 247 277 292 219 166 274 275 247 238 184 197 226 215 214 209 199 199 199 198 196 197 201
248 249 250 254 257 257 253 252 252 253 255 260 267 270 289 321 340 0 61 16 268 167 138 176 168 175 187 184 188 189 215 158 154 192 190 182 189 179 197 208 179 198 186 132 254 270 159 174 208 154 134 193 212 231 190 155 157 246 226 122 105 206 229 252 238 258 280 18 290 246 144 261 271 257 312 154 199 235 226 215 208 200 200 198 195 195 197 198
245 245 246 248 251 252 249 246 245 247 247 246 245 249 271 305 335 44 86 239 252 133 146 171 159 182 179 165 199 215 225 201 171 187 182 183 203 190 193 209 178 182 203 160 217 252 202 196 200 157 157 215 219 225 178 161 196 230 162 98 24 10 227 234 239 265 26 30 267 247 151 216 269 224 110 108 220 238 231 216 207 203 203 199 192 192 194 195
242 240 240 241 244 244 242 241 238 238 235 226 221 234 263 261 86 73 168 238 253 154 128 163 180 178 160 145 219 223 208 219 180 163 172 184 204 202 184 195 153 140 255 337 252 254 291 93 169 165 194 196 160 135 130 145 167 119 72 27 359 348 358 37 43 73 58 262 258 232 176 193 271 243 165 189 218 220 216 200 195 204 206 200 193 192 192 192
242 237 235 235 235 235 233 231 229 227 218 208 211 214 204 125 88 124 212 236 287 221 118 177 204 141 150 156 202 194 180 226 182 159 173 184 184 199 155 182 63 72 358 342 297 301 339 106 235 243 203 141 106 92 37 40 78 89 65 36 353 323 359 24 358 52 86 255 263 234 187 194 239 246 200 227 241 221 202 187 190 201 202 197 193 192 191 191
243 237 233 232 230 227 224 220 214 211 205 197 202 198 162 138 179 194 225 329 338 211 170 193 207 161 164 150 196 199 180 212 182 165 173 164 177 196 185 199 192 4 323 287 287 325 310 224 258 322 201 162 122 89 355 359 38 78 80 56 13 326 349 350 299 176 217 246 258 82 162 214 242 248 237 238 247 244 210 195 197 195 190 190 190 189 189 189
246 237 232 231 227 221 216 213 201 195 196 190 189 172 120 159 227 207 216 266 240 216 156 133 137 141 143 140 243 215 171 212 194 175 176 149 191 238 247 221 164 158 258 223 325 326 296 295 297 119 256 191 158 140 210 269 80 138 145 131 146 349 325 292 275 277 277 269 265 99 114 262 267 265 247 244 258 253 220 212 208 195 185 186 187 184 185 187
247 241 235 229 225 220 212 208 200 191 192 187 174 136 125 208 232 210 215 227 238 335 42 111 102 113 138 175 236 200 173 240 187 159 176 133 171 239 255 242 171 136 156 171 233 202 233 302 230 184 214 178 176 180 167 143 137 178 157 138 162 164 223 265 266 270 292 297 276 159 160 238 243 263 255 262 282 256 213 208 198 185 181 182 180 179 183 186
242 243 240 231 224 218 206 202 200 192 191 184 165 149 192 210 222 203 219 225 228 306 346 57 96 121 227 267 279 220 199 244 178 137 181 169 182 203 195 215 195 144 126 166 243 177 190 259 249 237 143 159 174 185 138 110 104 220 126 118 191 185 185 245 256 241 291 308 281 216 211 227 204 230 284 312 338 76 164 169 158 164 173 174 176 179 183 187
236 240 242 235 227 219 205 198 196 195 193 180 169 214 212 207 189 189 203 182 178 163 122 35 93 143 245 273 282 249 190 224 154 137 219 213 208 212 202 215 191 169 163 170 207 191 192 264 270 21 14 164 161 166 140 127 172 164 129 186 225 175 145 232 280 304 53 286 277 243 259 276 280 277 326 53 60 88 127 152 151 159 169 172 177 180 183 189
231 239 245 239 229 221 210 198 191 197 195 179 199 221 210 205 193 188 191 157 157 142 132 169 204 182 218 234 228 226 180 223 196 162 222 245 232 203 205 241 195 182 191 182 200 222 197 266 256 151 197 235 142 113 56 41 141 134 182 222 209 104 80 118 273 324 352 249 268 260 270 278 270 267 324 64 172 200 186 170 158 164 172 176 180 182 186 191
235 245 251 243 230 220 210 198 194 201 192 185 231 232 213 209 199 192 190 161 124 111 141 202 219 184 193 204 221 206 170 190 191 173 197 229 247 190 164 211 202 194 201 181 177 250 153 261 270 158 171 265 46 82 35 338 105 137 210 247 134 167 269 132 150 268 259 263 272 274 282 275 250 226 226 203 204 204 196 184 178 182 184 184 183 184 187 189
233 242 257 249 230 217 206 196 199 203 192 197 228 230 212 206 211 211 209 197 155 148 170 216 222 200 176 181 196 183 180 195 179 176 197 197 235 200 167 191 195 198 198 167 168 226 129 213 277 327 304 300 48 130 189 231 0 82 320 318 1 189 208 184 159 199 236 270 276 285 296 281 241 182 196 207 201 194 187 186 197 198 191 186 184 185 187 189
222 229 260 251 223 211 204 196 200 202 201 217 221 220 211 213 224 222 221 222 212 198 211 210 206 218 199 186 199 178 191 203 175 184 218 197 222 223 197 191 155 147 164 129 147 200 110 194 249 329 332 242 177 197 192 186 176 159 195 234 235 203 188 254 221 165 209 261 271 281 281 273 241 162 197 203 199 195 184 187 202 200 190 188 187 188 190 192
217 230 250 225 202 201 194 190 201 202 208 234 226 222 230 233 232 225 224 226 228 227 220 195 192 208 196 201 222 187 183 201 182 195 227 211 222 234 205 192 162 141 114 67 139 200 158 193 208 200 230 213 222 234 203 189 185 180 189 199 207 203 194 268 256 205 183 238 239 256 277 271 226 156 202 189 192 197 184 189 200 192 188 189 191 192 193 195
204 221 236 195 189 190 184 184 208 205 214 228 223 225 229 233 233 223 222 223 229 236 231 215 205 204 201 207 211 188 176 194 195 201 227 219 212 213 201 192 174 156 147 129 214 199 139 133 204 233 221 208 245 286 305 211 201 200 213 199 190 189 178 210 241 227 173 236 230 130 275 268 183 136 196 186 193 187 183 194 195 184 188 190 190 193 194 198
202 211 213 189 190 184 177 199 224 200 228 229 227 235 233 236 236 221 216 214 218 221 221 229 202 201 221 209 196 198 192 203 203 195 218 234 216 212 199 187 177 158 143 153 210 154 113 126 214 266 294 340 333 339 358 15 53 247 243 197 186 205 199 208 230 158 175 238 197 139 258 260 341 72 187 151 186 183 186 195 189 179 188 190 189 193 196 199
206 213 208 192 188 183 183 218 213 205 230 220 225 236 235 243 241 223 207 199 204 196 203 224 202 206 224 191 186 208 191 207 222 201 208 224 207 211 201 186 182 171 167 194 179 165 173 182 180 252 307 314 323 347 342 328 233 228 239 200 205 217 208 219 338 91 256 239 180 210 254 257 318 33 34 84 147 176 188 192 185 179 184 187 188 191 196 199
200 214 210 194 187 190 204 228 201 207 220 211 226 233 231 244 238 228 222 211 210 198 190 228 214 205 211 164 193 218 200 214 235 217 209 218 220 219 201 193 192 189 201 203 169 165 175 191 172 188 242 254 259 259 229 227 214 225 235 212 213 211 203 212 223 220 245 235 194 228 255 267 271 75 47 272 178 170 183 183 185 186 184 186 189 191 195 197
187 195 203 188 187 197 216 227 222 224 208 199 227 232 223 235 237 227 222 220 221 213 216 239 214 195 202 184 202 226 222 225 233 229 204 198 225 242 191 198 201 203 216 194 166 160 146 229 202 204 220 230 248 253 205 136 183 229 231 214 206 204 203 206 216 233 240 239 242 245 250 268 270 252 196 241 209 184 192 181 184 189 185 187 190 193 196 199
187 197 193 173 184 203 217 222 218 222 196 183 190 217 217 223 233 224 213 212 215 212 223 247 208 198 210 193 200 230 228 224 227 230 216 189 220 275 190 200 205 208 207 179 175 159 100 242 222 218 229 234 247 253 224 168 233 249 252 232 202 191 196 199 215 233 237 233 257 256 248 256 265 259 216 220 216 203 201 186 189 190 186 188 191 192 196 199
202 215 201 188 181 195 209 210 205 206 210 202 206 235 223 216 217 213 204 204 206 201 207 232 217 216 212 190 194 228 227 224 230 229 220 211 220 208 183 233 211 203 187 160 187 162 126 240 229 215 235 242 248 254 241 225 248 260 262 253 210 182 194 206 222 234 232 228 250 263 266 261 264 265 233 216 210 206 206 198 195 190 185 187 189 190 195 199
213 222 201 195 199 198 201 204 198 199 213 211 214 237 232 224 219 207 186 182 206 205 202 216 223 218 209 195 196 221 225 216 219 225 219 219 220 196 176 245 218 195 175 155 200 168 153 244 239 214 239 252 250 252 246 244 257 263 261 258 227 204 209 213 231 240 236 238 250 262 270 269 268 269 256 237 217 208 206 197 189 184 183 186 189 191 195 201
218 217 192 188 207 215 207 204 194 198 215 211 218 233 230 230 227 210 182 184 202 207 201 216 227 214 200 203 206 222 227 212 210 224 212 206 219 205 194 215 170 160 187 165 182 200 191 240 248 183 244 263 256 246 233 236 252 261 264 262 242 234 235 229 238 246 243 246 251 256 264 268 269 268 258 241 212 192 188 183 183 186 188 188 190 192 196 201
223 222 204 185 206 214 202 197 188 199 215 205 217 229 224 228 226 214 198 206 212 208 193 210 225 214 196 210 216 226 229 215 212 225 215 199 205 203 204 197 150 147 192 177 163 195 198 227 40 106 238 262 264 242 214 252 278 268 267 263 245 237 240 233 234 239 237 239 250 255 257 260 265 267 238 215 189 172 173 177 182 189 191 191 192 193 196 201
223 226 214 203 208 200 194 200 191 200 219 210 216 226 222 226 224 210 209 222 221 221 212 209 217 212 201 215 220 226 229 222 220 230 228 215 209 208 208 196 174 169 172 165 176 184 172 192 173 144 226 260 336 87 101 62 311 268 262 252 233 227 233 236 241 242 234 228 240 247 244 251 261 252 202 206 189 178 181 182 185 191 193 193 194 194 196 202
Height
1566 1565 1564 1564 1563 1562 1561 1560 1559 1557 1556 1555 1554 1553 1552 1550 1549 1548 1546 1545 1544 1543 1542 1541 1540 1540 1540 1540 1540 1540 1539 1539 1538 1538 1537 1536 1536 1536 1535 1535 1534 1533 1532 1532 1531 1530 1530 1529 1529 1528 1527 1527 1527 1527 1527 1527 1526 1525 1529 1532 1534 1537 1537 1534 1535 1536 1535 1536 1535 1534 1533 1533 1537 1538 1537 1539 1539 1540 1541 1542 1543 1543 1544 1545 1545 1547 1547 1547
1566 1565 1564 1564 1563 1562 1561 1560 1559 1558 1557 1556 1555 1553 1552 1551 1549 1548 1547 1546 1545 1544 1542 1541 1541 1540 1540 1541 1541 1540 1540 1540 1539 1539 1537 1537 1537 1536 1536 1535 1535 1534 1533 1532 1531 1531 1530 1529 1528 1528 1527 1526 1527 1527 1527 1527 1526 1527 1531 1533 1534 1536 1534 1532 1532 1532 1533 1534 1534 1533 1533 1533 1535 1536 1535 1539 1543 1541 1541 1544 1545 1544 1545 1545 1545 1546 1546 1546
1566 1565 1564 1564 1563 1562 1561 1560 1559 1558 1557 1556 1555 1554 1553 1551 1550 1548 1547 1546 1545 1544 1543 1542 1541 1540 1540 1540 1541 1541 1541 1540 1540 1539 1538 1538 1538 1537 1537 1536 1535 1535 1534 1532 1532 1531 1530 1529 1529 1528 1527 1526 1527 1527 1527 1527 1527 1527 1530 1532 1533 1533 1532 1532 1531 1531 1531 1532 1533 1533 1532 1532 1533 1534 1534 1537 1542 1542 1540 1542 1543 1543 1544 1544 1544 1544 1544 1544
1566 1565 1564 1564 1563 1562 1561 1560 1559 1558 1557 1556 1555 1554 1553 1552 1550 1549 1547 1546 1545 1544 1543 1542 1541 1540 1540 1540 1541 1541 1541 1540 1540 1540 1539 1539 1538 1538 1537 1536 1536 1535 1534 1533 1532 1531 1530 1530 1529 1528 1527 1527 1527 1527 1527 1527 1527 1528 1529 1530 1531 1531 1531 1531 1531 1530 1531 1531 1531 1532 1532 1532 1532 1532 1533 1535 1539 1541 1540 1538 1539 1540 1541 1542 1542 1543 1543 1542
1566 1565 1564 1564 1563 1562 1561 1560 1559 1558 1557 1556 1555 1554 1553 1552 1550 1549 1548 1546 1545 1544 1543 1542 1541 1540 1540 1540 1540 1540 1541 1542 1541 1540 1540 1539 1539 1538 1537 1537 1536 1536 1535 1534 1532 1531 1530 1530 1529 1528 1527 1527 1527 1527 1527 1527 1528 1528 1528 1528 1528 1530 1531 1531 1531 1531 1530 1530 1530 1531 1531 1530 1531 1531 1532 1532 1534 1536 1536 1536 1537 1538 1538 1540 1540 1541 1541 1540
1565 1565 1564 1563 1563 1562 1561 1560 1559 1558 1557 1556 1555 1554 1553 1552 1551 1549 1548 1546 1545 1544 1543 1542 1541 1540 1540 1539 1540 1540 1541 1542 1540 1540 1540 1539 1539 1538 1538 1537 1537 1536 1535 1534 1533 1532 1531 1530 1529 1529 1528 1528 1529 1528 1528 1528 1528 1529 1528 1527 1527 1529 1530 1531 1531 1531 1530 1530 1530 1530 1530 1530 1530 1531 1532 1532 1531 1532 1533 1535 1536 1537 1538 1538 1538 1539 1539 1538
1565 1565 1564 1563 1562 1562 1561 1560 1559 1558 1558 1556 1555 1554 1553 1552 1551 1549 1548 1546 1545 1544 1543 1542 1541 1540 1540 1539 1539 1539 1539 1539 1539 1539 1540 1539 1539 1538 1538 1537 1537 1536 1536 1535 1533 1532 1531 1530 1529 1530 1530 1530 1530 1529 1528 1528 1528 1529 1529 1526 1527 1528 1529 1530 1530 1530 1529 1529 1529 1529 1529 1529 1529 1530 1531 1531 1531 1531 1533 1535 1535 1536 1537 1537 1537 1537 1537 1536
1564 1564 1563 1563 1562 1561 1561 1560 1559 1558 1557 1556 1555 1554 1553 1552 1550 1549 1547 1546 1545 1544 1543 1542 1541 1540 1540 1539 1539 1539 1539 1539 1539 1539 1539 1539 1539 1538 1538 1537 1537 1537 1536 1535 1533 1532 1531 1530 1530 1530 1531 1531 1531 1531 1530 1529 1528 1528 1528 1527 1527 1527 1527 1528 1528 1528 1528 1528 1529 1529 1528 1527 1527 1528 1530 1531 1531 1532 1533 1534 1534 1535 1535 1536 1535 1535 1535 1535
1564 1563 1563 1562 1562 1561 1560 1559 1558 1558 1557 1556 1555 1554 1553 1551 1550 1549 1547 1546 1544 1544 1543 1541 1541 1540 1540 1539 1539 1539 1538 1538 1538 1539 1539 1539 1538 1538 1538 1537 1537 1536 1535 1534 1533 1532 1531 1531 1531 1531 1531 1532 1532 1531 1530 1530 1529 1528 1528 1527 1527 1526 1526 1527 1527 1527 1527 1527 1528 1528 1528 1528 1528 1529 1531 1532 1532 1532 1533 1533 1534 1534 1534 1534 1534 1534 1534 1534
1563 1562 1562 1561 1561 1560 1559 1559 1558 1557 1556 1555 1555 1554 1552 1551 1550 1549 1547 1545 1544 1543 1542 1541 1540 1539 1539 1539 1539 1539 1537 1537 1538 1538 1538 1538 1538 1538 1537 1537 1537 1536 1535 1534 1533 1533 1532 1531 1531 1531 1531 1532 1532 1532 1531 1531 1530 1528 1528 1527 1526 1526 1526 1525 1526 1526 1526 1527 1527 1528 1529 1529 1529 1530 1530 1532 1532 1531 1532 1533 1533 1533 1533 1533 1533 1533 1533 1532
1562 1561 1561 1560 1560 1559 1558 1558 1557 1556 1555 1555 1554 1553 1552 1551 1549 1548 1546 1545 1544 1543 1541 1540 1539 1539 1539 1538 1538 1538 1536 1537 1537 1537 1538 1537 1538 1537 1537 1537 1536 1536 1535 1534 1533 1533 1532 1531 1531 1531 1531 1532 1532 1532 1531 1531 1530 1529 1528 1527 1525 1525 1524 1524 1524 1525 1526 1527 1527 1527 1530 1531 1532 1530 1526 1527 1530 1531 1531 1532 1532 1532 1531 1531 1531 1531 1531 1531
1561 1560 1560 1559 1559 1558 1557 1557 1556 1555 1554 1554 1553 1552 1551 1550 1549 1548 1546 1544 1543 1542 1541 1540 1539 1538 1538 1538 1537 1536 1536 1536 1536 1536 1537 1537 1537 1537 1536 1536 1535 1535 1534 1534 1533 1533 1532 1531 1531 1531 1531 1532 1532 1532 1531 1531 1530 1529 1528 1528 1526 1525 1523 1521 1522 1524 1524 1526 1526 1527 1531 1533 1532 1527 1523 1525 1528 1530 1530 1530 1530 1530 1529 1529 1529 1529 1529 1529
1559 1559 1559 1558 1557 1557 1556 1555 1555 1554 1553 1552 1552 1551 1550 1549 1548 1547 1545 1543 1542 1541 1540 1539 1538 1538 1537 1537 1536 1536 1536 1536 1536 1536 1536 1536 1536 1536 1535 1535 1535 1534 1534 1533 1533 1532 1532 1531 1531 1531 1531 1531 1531 1532 1531 1530 1530 1529 1529 1529 1528 1528 1524 1521 1522 1523 1523 1525 1525 1527 1530 1530 1528 1525 1524 1525 1526 1528 1529 1528 1528 1528 1527 1527 1527 1527 1527 1527
1558 1558 1557 1557 1556 1556 1555 1554 1554 1553 1552 1551 1550 1550 1549 1548 1547 1545 1544 1542 1541 1541 1539 1538 1538 1537 1537 1536 1535 1535 1535 1535 1535 1535 1536 1536 1536 1535 1535 1534 1534 1533 1533 1533 1532 1532 1531 1531 1531 1530 1530 1531 1530 1530 1530 1531 1530 1530 1530 1531 1534 1533 1526 1520 1522 1523 1523 1524 1523 1526 1529 1524 1522 1523 1524 1524 1524 1525 1526 1526 1526 1526 1525 1525 1525 1525 1525 1526
1557 1556 1556 1556 1555 1555 1554 1553 1552 1551 1551 1550 1549 1548 1547 1546 1545 1544 1543 1541 1541 1540 1538 1537 1537 1536 1536 1535 1534 1534 1534 1534 1534 1534 1535 1535 1535 1534 1534 1533 1533 1533 1532 1531 1531 1531 1530 1530 1530 1530 1530 1530 1530 1531 1531 1531 1531 1532 1532 1533 1536 1536 1528 1521 1521 1521 1522 1522 1522 1525 1527 1522 1519 1521 1521 1523 1523 1523 1523 1523 1524 1523 1523 1522 1522 1523 1524 1524
1556 1555 1555 1554 1554 1553 1552 1552 1551 1550 1549 1548 1547 1547 1546 1544 1543 1542 1541 1540 1539 1538 1537 1536 1536 1536 1535 1533 1533 1532 1532 1533 1533 1533 1534 1534 1534 1533 1533 1532 1532 1532 1531 1531 1530 1530 1530 1530 1529 1530 1530 1530 1531 1532 1532 1533 1532 1534 1535 1534 1533 1534 1532 1526 1521 1520 1520 1521 1521 1522 1522 1518 1517 1518 1519 1521 1521 1521 1521 1521 1521 1520 1520 1520 1520 1521 1521 1522
1555 1554 1553 1553 1553 1552 1551 1550 1550 1549 1548 1547 1546 1545 1544 1543 1541 1540 1539 1538 1538 1537 1536 1535 1534 1534 1533 1532 1531 1530 1530 1531 1532 1532 1532 1533 1533 1532 1532 1531 1531 1531 1531 1530 1530 1530 1529 1529 1529 1530 1530 1531 1533 1533 1535 1537 1535 1536 1537 1535 1532 1532 1533 1529 1522 1519 1520 1521 1520 1521 1520 1515 1514 1516 1517 1518 1518 1518 1518 1517 1517 1517 1518 1518 1519 1519 1519 1519
1554 1553 1552 1552 1551 1551 1550 1549 1548 1547 1546 1545 1544 1543 1542 1540 1539 1538 1536 1537 1537 1536 1535 1534 1534 1535 1532 1529 1529 1529 1529 1530 1531 1531 1531 1531 1532 1531 1531 1531 1530 1530 1530 1530 1530 1529 1529 1528 1529 1531 1532 1533 1533 1533 1536 1538 1536 1536 1536 1534 1533 1532 1531 1529 1525 1520 1520 1521 1520 1521 1521 1514 1513 1516 1515 1515 1516 1515 1514 1514 1514 1515 1516 1516 1516 1517 1517 1516
1552 1551 1551 1551 1550 1549 1548 1548 1547 1546 1544 1544 1543 1542 1540 1538 1537 1535 1535 1536 1535 1534 1533 1532 1532 1533 1530 1527 1528 1528 1528 1529 1529 1529 1530 1530 1530 1530 1530 1530 1529 1529 1529 1529 1529 1529 1529 1528 1530 1532 1532 1533 1532 1532 1533 1533 1533 1534 1535 1535 1534 1533 1529 1525 1524 1520 1519 1521 1519 1519 1518 1512 1512 1514 1513 1513 1514 1514 1513 1513 1513 1513 1514 1514 1514 1514 1515 1515
1549 1549 1549 1549 1549 1548 1547 1546 1546 1545 1543 1542 1541 1540 1538 1538 1536 1534 1534 1534 1533 1532 1530 1530 1529 1528 1527 1526 1526 1527 1527 1528 1528 1528 1528 1529 1529 1529 1529 1529 1528 1529 1529 1529 1529 1529 1529 1530 1532 1532 1531 1530 1531 1531 1531 1532 1533 1533 1534 1534 1534 1535 1530 1522 1521 1520 1519 1521 1516 1514 1515 1511 1510 1510 1509 1510 1512 1513 1513 1512 1511 1511 1511 1511 1511 1512 1512 1513
1546 1547 1547 1547 1547 1546 1546 1545 1544 1544 1542 1541 1540 1539 1539 1539 1537 1536 1533 1530 1530 1529 1527 1526 1526 1525 1524 1524 1524 1525 1525 1526 1526 1527 1527 1528 1528 1528 1528 1528 1528 1529 1529 1529 1530 1529 1530 1532 1530 1528 1528 1528 1530 1531 1531 1532 1532 1532 1534 1533 1533 1535 1530 1521 1520 1519 1519 1520 1514 1510 1514 1511 1508 1507 1506 1508 1510 1509 1507 1507 1506 1506 1507 1507 1508 1509 1510 1512
1544 1544 1544 1545 1544 1544 1544 1543 1543 1543 1542 1541 1540 1540 1539 1539 1538 1537 1535 1530 1527 1525 1524 1522 1522 1521 1521 1522 1522 1524 1524 1524 1525 1525 1526 1526 1527 1527 1527 1528 1529 1529 1529 1530 1530 1531 1533 1531 1526 1525 1527 1529 1530 1531 1532 1532 1532 1533 1534 1536 1533 1532 1528 1521 1519 1520 1520 1520 1513 1509 1511 1509 1505 1503 1502 1503 1503 1501 1499 1498 1498 1499 1501 1502 1504 1506 1508 1509
1541 1541 1542 1542 1542 1542 1542 1542 1541 1541 1541 1540 1540 1539 1539 1538 1537 1536 1536 1531 1525 1521 1520 1519 1519 1519 1519 1520 1520 1522 1523 1523 1523 1523 1524 1525 1525 1526 1526 1527 1528 1529 1529 1529 1529 1533 1533 1527 1524 1525 1527 1528 1529 1531 1532 1532 1533 1533 1533 1535 1531 1528 1529 1523 1520 1521 1520 1519 1514 1509 1508 1507 1505 1499 1494 1495 1496 1495 1496 1496 1497 1497 1497 1499 1501 1503 1504 1505
1538 1539 1539 1538 1540 1540 1540 1540 1540 1540 1540 1539 1539 1538 1538 1538 1537 1535 1534 1531 1525 1519 1518 1517 1517 1517 1518 1519 1519 1520 1521 1521 1522 1522 1523 1524 1524 1525 1524 1525 1528 1528 1528 1527 1528 1531 1529 1524 1525 1526 1526 1527 1529 1530 1532 1532 1532 1531 1530 1532 1528 1524 1526 1523 1523 1524 1520 1517 1514 1510 1503 1497 1498 1494 1487 1491 1494 1493 1494 1495 1496 1496 1497 1499 1501 1502 1502 1503
1535 1536 1536 1536 1537 1537 1538 1539 1538 1539 1538 1538 1538 1537 1538 1537 1536 1535 1533 1532 1527 1519 1516 1516 1516 1516 1517 1518 1518 1519 1520 1520 1520 1521 1521 1522 1522 1523 1524 1524 1525 1526 1528 1528 1529 1529 1526 1524 1525 1526 1527 1528 1529 1529 1530 1531 1532 1531 1526 1524 1523 1522 1522 1523 1525 1525 1522 1519 1515 1515 1508 1492 1490 1491 1486 1491 1495 1492 1493 1493 1492 1493 1495 1498 1498 1498 1500 1501
1532 1533 1533 1534 1534 1535 1537 1537 1537 1538 1536 1537 1537 1536 1537 1535 1536 1535 1533 1536 1530 1517 1514 1515 1515 1516 1515 1517 1518 1519 1520 1519 1518 1519 1520 1521 1521 1521 1523 1524 1524 1525 1527 1528 1528 1527 1525 1525 1525 1526 1527 1528 1529 1529 1529 1529 1533 1533 1525 1522 1523 1523 1524 1524 1526 1526 1524 1521 1517 1520 1519 1502 1489 1486 1483 1489 1492 1489 1491 1490 1489 1491 1492 1493 1493 1495 1497 1498
1528 1530 1531 1531 1532 1533 1535 1535 1535 1535 1535 1536 1535 1536 1536 1534 1536 1534 1533 1541 1531 1511 1511 1514 1514 1514 1514 1516 1516 1517 1519 1517 1516 1518 1518 1519 1520 1520 1521 1523 1523 1524 1524 1526 1528 1525 1523 1525 1526 1526 1526 1528 1528 1526 1526 1528 1531 1529 1524 1524 1524 1523 1525 1525 1527 1529 1526 1525 1521 1518 1524 1515 1494 1482 1481 1484 1488 1488 1489 1488 1487 1488 1488 1488 1490 1491 1493 1495
1525 1527 1528 1529 1529 1531 1532 1533 1533 1533 1534 1535 1534 1536 1535 1534 1537 1533 1537 1546 1526 1506 1508 1511 1511 1513 1512 1515 1515 1515 1516 1515 1516 1517 1517 1518 1519 1519 1520 1520 1521 1522 1522 1525 1527 1523 1521 1523 1524 1524 1526 1527 1524 1522 1523 1525 1526 1524 1525 1527 1525 1525 1527 1526 1529 1529 1529 1531 1523 1513 1522 1520 1493 1479 1485 1487 1486 1486 1484 1483 1483 1484 1484 1484 1486 1489 1490 1492
1522 1524 1525 1527 1527 1528 1530 1530 1531 1532 1533 1533 1534 1535 1533 1535 1535 1532 1543 1544 1517 1502 1508 1509 1510 1512 1511 1513 1514 1514 1514 1514 1515 1515 1516 1518 1517 1518 1519 1519 1520 1520 1520 1522 1522 1520 1520 1521 1521 1522 1524 1522 1519 1521 1523 1523 1523 1523 1526 1526 1526 1528 1527 1528 1530 1529 1533 1534 1520 1509 1518 1516 1486 1470 1484 1492 1486 1480 1474 1475 1479 1480 1481 1482 1483 1486 1488 1489
1519 1520 1522 1523 1524 1525 1527 1527 1529 1530 1531 1532 1533 1533 1533 1535 1534 1540 1550 1537 1510 1505 1509 1507 1509 1510 1510 1513 1513 1513 1514 1513 1514 1514 1516 1517 1517 1517 1518 1518 1520 1520 1521 1522 1520 1519 1519 1521 1521 1520 1519 1517 1518 1522 1524 1524 1523 1524 1526 1525 1525 1527 1527 1531 1532 1531 1534 1525 1508 1504 1508 1510 1491 1469 1474 1479 1469 1465 1464 1469 1476 1477 1478 1479 1481 1483 1484 1486
1515 1518 1519 1520 1521 1523 1524 1525 1527 1527 1529 1530 1531 1532 1533 1534 1537 1544 1543 1522 1506 1508 1507 1506 1509 1508 1509 1511 1510 1512 1513 1512 1513 1514 1515 1516 1517 1517 1518 1518 1519 1520 1522 1521 1520 1521 1521 1520 1520 1516 1515 1516 1518 1521 1523 1524 1524 1524 1526 1527 1525 1525 1525 1530 1532 1535 1533 1511 1497 1503 1506 1509 1496 1469 1465 1466 1457 1456 1459 1462 1468 1469 1471 1475 1477 1480 1481 1482
1513 1515 1516 1517 1518 1520 1522 1523 1524 1525 1527 1528 1530 1531 1532 1537 1541 1537 1525 1510 1506 1506 1503 1505 1507 1506 1509 1510 1509 1510 1511 1510 1511 1511 1513 1515 1515 1515 1515 1514 1514 1519 1522 1520 1519 1520 1517 1516 1517 1515 1514 1516 1516 1520 1524 1525 1525 1525 1527 1529 1530 1529 1527 1526 1523 1524 1520 1503 1497 1507 1508 1503 1485 1461 1459 1460 1455 1457 1456 1456 1458 1460 1465 1471 1473 1476 1478 1480
1511 1512 1514 1515 1515 1518 1519 1520 1522 1524 1524 1526 1529 1528 1532 1540 1535 1524 1516 1508 1503 1502 1501 1503 1505 1506 1508 1508 1507 1509 1509 1508 1508 1509 1511 1514 1514 1512 1512 1512 1512 1514 1518 1522 1523 1519 1514 1513 1515 1514 1512 1512 1513 1515 1519 1520 1524 1526 1525 1525 1528 1531 1532 1525 1517 1512 1506 1497 1499 1508 1507 1494 1471 1456 1458 1456 1453 1456 1455 1454 1455 1455 1462 1466 1469 1473 1475 1477
1508 1509 1511 1511 1513 1515 1517 1519 1520 1521 1523 1525 1526 1528 1535 1537 1524 1514 1513 1506 1500 1502 1502 1503 1505 1507 1507 1506 1505 1505 1506 1506 1506 1508 1509 1512 1514 1511 1509 1511 1511 1510 1515 1522 1523 1520 1517 1510 1508 1509 1507 1508 1510 1510 1511 1513 1521 1525 1524 1523 1523 1524 1527 1522 1514 1507 1501 1496 1499 1507 1502 1481 1460 1454 1459 1458 1455 1455 1453 1453 1454 1456 1461 1465 1468 1472 1473 1475
1506 1507 1508 1508 1510 1512 1514 1517 1518 1520 1522 1522 1524 1528 1529 1524 1514 1511 1508 1502 1501 1503 1503 1504 1505 1507 1508 1507 1505 1503 1502 1503 1505 1508 1507 1508 1509 1506 1503 1504 1507 1509 1513 1518 1517 1519 1520 1509 1503 1507 1506 1506 1508 1508 1511 1512 1518 1524 1525 1525 1521 1515 1516 1516 1510 1507 1509 1508 1501 1497 1486 1465 1455 1456 1459 1460 1457 1455 1454 1453 1455 1458 1461 1465 1467 1469 1471 1472
1505 1505 1505 1505 1507 1509 1512 1515 1516 1518 1519 1519 1524 1522 1513 1506 1505 1504 1499 1495 1497 1499 1502 1506 1506 1507 1509 1506 1504 1503 1501 1502 1505 1507 1507 1508 1507 1504 1501 1498 1499 1502 1503 1508 1509 1511 1513 1507 1505 1509 1507 1508 1509 1508 1511 1510 1512 1522 1524 1518 1515 1514 1513 1513 1512 1513 1519 1516 1495 1481 1472 1457 1452 1453 1456 1460 1458 1457 1458 1455 1456 1458 1460 1463 1464 1465 1468 1470
1503 1502 1502 1502 1504 1507 1509 1512 1515 1516 1516 1519 1518 1509 1499 1496 1495 1495 1493 1492 1493 1494 1499 1504 1502 1502 1504 1502 1501 1501 1501 1503 1505 1504 1505 1507 1502 1497 1498 1494 1493 1495 1492 1496 1500 1501 1504 1502 1503 1508 1505 1508 1511 1508 1511 1510 1510 1517 1518 1511 1511 1516 1515 1516 1519 1518 1520 1515 1491 1475 1471 1457 1448 1451 1454 1461 1460 1458 1460 1458 1458 1460 1459 1461 1463 1464 1467 1468
1500 1501 1499 1497 1500 1504 1506 1510 1513 1513 1515 1517 1510 1500 1495 1492 1489 1489 1489 1489 1491 1492 1495 1498 1495 1494 1497 1499 1497 1499 1501 1501 1503 1504 1503 1503 1495 1488 1491 1490 1489 1491 1489 1491 1495 1499 1503 1500 1502 1510 1508 1508 1511 1509 1510 1511 1511 1512 1511 1510 1511 1513 1513 1517 1523 1517 1513 1511 1489 1472 1469 1451 1437 1443 1447 1453 1456 1454 1457 1459 1458 1458 1457 1459 1461 1462 1465 1466
1499 1499 1495 1492 1497 1502 1504 1508 1509 1511 1514 1511 1505 1498 1492 1488 1486 1486 1486 1487 1489 1490 1492 1491 1490 1490 1493 1494 1492 1495 1499 1498 1501 1502 1498 1497 1492 1484 1485 1485 1486 1490 1490 1491 1494 1497 1501 1499 1500 1509 1512 1510 1510 1510 1507 1508 1512 1513 1512 1513 1511 1510 1511 1511 1516 1510 1504 1504 1488 1475 1470 1441 1423 1429 1431 1437 1446 1448 1452 1456 1454 1453 1453 1455 1458 1460 1462 1463
1497 1498 1491 1487 1494 1498 1501 1506 1507 1508 1506 1499 1495 1493 1488 1485 1484 1483 1484 1486 1486 1486 1487 1487 1487 1488 1489 1491 1490 1491 1494 1495 1498 1498 1494 1491 1488 1482 1482 1482 1483 1490 1492 1493 1494 1495 1500 1502 1500 1508 1516 1511 1503 1502 1498 1497 1505 1509 1511 1513 1510 1509 1510 1508 1508 1503 1499 1501 1491 1486 1475 1434 1414 1425 1423 1425 1437 1439 1444 1449 1447 1449 1451 1453 1455 1456 1459 1460
1496 1495 1487 1485 1491 1493 1498 1503 1501 1500 1497 1490 1487 1487 1485 1483 1481 1481 1482 1483 1482 1481 1482 1483 1484 1484 1484 1487 1488 1487 1490 1493 1494 1494 1490 1487 1483 1479 1478 1477 1480 1487 1491 1494 1495 1493 1497 1500 1498 1503 1509 1503 1494 1492 1494 1492 1493 1496 1499 1500 1499 1502 1506 1508 1506 1498 1498 1497 1485 1487 1474 1426 1410 1425 1422 1423 1432 1433 1438 1442 1442 1446 1448 1449 1452 1453 1456 1457
1492 1489 1483 1485 1488 1489 1494 1497 1492 1491 1490 1484 1482 1483 1482 1479 1478 1478 1479 1480 1480 1479 1480 1480 1479 1481 1481 1480 1482 1483 1485 1488 1490 1490 1485 1480 1477 1475 1473 1474 1476 1479 1483 1489 1491 1489 1492 1496 1496 1494 1494 1495 1494 1494 1496 1494 1492 1492 1492 1490 1492 1496 1497 1500 1498 1491 1494 1490 1479 1489 1476 1424 1410 1426 1423 1424 1429 1429 1435 1437 1438 1443 1444 1446 1450 1451 1454 1455
1484 1483 1481 1484 1485 1487 1492 1491 1487 1487 1483 1478 1479 1479 1478 1477 1475 1475 1475 1476 1477 1476 1477 1476 1474 1476 1476 1475 1477 1479 1480 1481 1481 1481 1478 1474 1473 1472 1471 1472 1474 1476 1480 1484 1487 1488 1490 1493 1493 1489 1485 1490 1496 1496 1496 1496 1496 1494 1489 1487 1488 1485 1483 1486 1485 1485 1489 1482 1481 1497 1473 1419 1412 1428 1424 1425 1429 1428 1432 1433 1435 1441 1441 1444 1448 1448 1451 1452
1479 1480 1480 1482 1484 1486 1486 1481 1478 1480 1478 1477 1479 1477 1476 1475 1472 1470 1471 1471 1471 1471 1471 1470 1469 1470 1470 1471 1473 1474 1476 1476 1473 1472 1471 1470 1469 1469 1469 1470 1471 1473 1475 1476 1478 1482 1486 1488 1490 1492 1491 1489 1489 1492 1494 1494 1496 1491 1482 1483 1482 1478 1481 1483 1483 1489 1486 1473 1481 1490 1454 1413 1417 1430 1426 1427 1430 1428 1431 1432 1433 1437 1439 1441 1445 1446 1448 1449
1476 1477 1476 1477 1480 1480 1476 1470 1470 1473 1474 1476 1477 1474 1475 1471 1464 1464 1466 1465 1465 1466 1466 1465 1464 1464 1466 1469 1470 1469 1470 1469 1466 1466 1466 1466 1467 1467 1468 1469 1469 1469 1469 1470 1472 1474 1478 1480 1481 1487 1493 1488 1477 1475 1476 1479 1486 1486 1479 1478 1477 1478 1482 1480 1482 1489 1477 1466 1474 1468 1436 1415 1418 1426 1428 1428 1430 1430 1431 1433 1433 1434 1436 1439 1441 1443 1445 1446
1469 1470 1470 1472 1474 1473 1468 1466 1468 1469 1469 1473 1475 1472 1470 1465 1458 1458 1461 1462 1462 1463 1462 1460 1461 1462 1464 1465 1467 1467 1466 1465 1464 1463 1462 1463 1463 1465 1467 1466 1467 1468 1468 1470 1471 1471 1475 1476 1472 1471 1473 1471 1461 1456 1460 1466 1472 1472 1469 1470 1473 1475 1477 1478 1483 1478 1464 1466 1465 1440 1429 1426 1413 1415 1427 1427 1427 1430 1429 1431 1433 1432 1434 1436 1438 1440 1441 1443
1459 1455 1454 1460 1464 1465 1462 1462 1465 1464 1464 1468 1466 1458 1455 1455 1455 1455 1455 1455 1456 1459 1460 1458 1458 1459 1458 1460 1464 1463 1460 1462 1462 1460 1460 1460 1459 1464 1467 1465 1466 1467 1466 1469 1470 1471 1473 1470 1466 1465 1462 1456 1450 1450 1457 1461 1460 1457 1455 1459 1467 1473 1475 1477 1473 1458 1454 1470 1454 1419 1426 1432 1406 1404 1422 1422 1423 1427 1425 1427 1428 1427 1430 1432 1434 1437 1439 1441
1447 1439 1438 1443 1447 1449 1450 1450 1452 1456 1458 1458 1453 1447 1445 1447 1448 1448 1447 1449 1452 1454 1456 1454 1451 1449 1448 1453 1458 1457 1455 1458 1459 1456 1456 1457 1457 1462 1465 1465 1466 1465 1465 1469 1468 1468 1471 1463 1458 1462 1461 1453 1449 1451 1457 1459 1458 1455 1449 1449 1460 1470 1470 1466 1460 1450 1452 1459 1436 1411 1422 1422 1399 1402 1416 1416 1418 1420 1418 1422 1422 1423 1427 1429 1431 1435 1435 1437
1438 1433 1433 1436 1435 1434 1435 1436 1442 1448 1450 1450 1449 1444 1437 1434 1434 1436 1440 1446 1447 1445 1445 1444 1438 1438 1443 1448 1450 1449 1446 1449 1451 1449 1449 1449 1450 1454 1458 1459 1462 1464 1465 1467 1467 1468 1468 1459 1454 1459 1458 1453 1451 1454 1458 1460 1460 1455 1444 1443 1455 1462 1459 1457 1453 1446 1445 1443 1427 1418 1424 1411 1392 1399 1411 1409 1411 1413 1413 1417 1419 1421 1424 1425 1428 1431 1431 1433
1426 1423 1425 1430 1430 1429 1431 1434 1440 1443 1443 1447 1446 1433 1425 1426 1427 1429 1433 1436 1436 1434 1435 1434 1428 1430 1437 1441 1441 1436 1428 1430 1437 1436 1438 1443 1444 1447 1450 1448 1452 1462 1465 1464 1466 1468 1465 1458 1455 1458 1459 1452 1448 1453 1458 1459 1460 1454 1441 1439 1449 1451 1451 1453 1447 1438 1439 1437 1425 1425 1429 1409 1387 1393 1405 1405 1406 1409 1411 1414 1416 1418 1420 1422 1424 1426 1427 1429
1418 1418 1421 1425 1424 1425 1428 1431 1435 1437 1437 1438 1431 1419 1418 1421 1417 1420 1425 1423 1419 1420 1423 1422 1421 1426 1434 1436 1432 1422 1415 1421 1427 1424 1425 1432 1433 1434 1437 1436 1440 1453 1461 1462 1462 1462 1464 1462 1458 1462 1463 1451 1447 1457 1461 1461 1467 1460 1440 1434 1442 1445 1441 1438 1433 1428 1428 1427 1424 1429 1427 1403 1384 1390 1399 1400 1401 1405 1406 1409 1412 1414 1415 1417 1418 1420 1423 1425
1416 1417 1417 1418 1416 1417 1421 1424 1428 1430 1423 1417 1412 1410 1413 1411 1408 1416 1423 1416 1410 1412 1415 1415 1418 1425 1429 1426 1416 1407 1407 1416 1420 1419 1422 1426 1426 1426 1429 1430 1432 1437 1448 1457 1457 1455 1459 1457 1455 1463 1462 1452 1456 1466 1465 1468 1469 1447 1420 1414 1423 1429 1427 1425 1422 1416 1414 1418 1423 1421 1405 1386 1383 1392 1395 1395 1398 1400 1401 1403 1406 1409 1411 1412 1413 1416 1420 1421